NOAA NWS Hourly Roundups by Site

Regional Weather Roundup for Seattle, WA

To Select Another Site Choose from List

Select Site:  

000
ASUS46 KSEW 180120
RWRWA

WASHINGTON REGIONAL WEATHER ROUNDUP
NATIONAL WEATHER SERVICE SEATTLE WA
500 PM PST MON JAN 17 2022

NOTE:"FAIR" INDICATES FEW OR NO CLOUDS BELOW 12,000 FEET WITH NO
SIGNIFICANT WEATHER AND/OR OBSTRUCTIONS TO VISIBILITY.

WAZ507-509-555>559-180200-
SEATTLE, TACOMA, EVERETT, AND VICINITY

CITY           SKY/WX    TMP DP  RH WIND       PRES   REMARKS
EVERETT        CLOUDY    43  40  89 CALM      29.99S
BOEING FIELD   CLOUDY    50  39  66 VRB3      29.99S
RENTON         CLOUDY    50  38  63 CALM      29.99S
SEATAC AIRPORT CLOUDY    48  39  71 S7        29.98S
JBLM-MCCHORD   CLOUDY    48  41  76 SW7       29.99R
PUYALLUP       MOCLDY    48  45  87 CALM      30.00R
BREMERTON      CLOUDY    44  42  93 N6        29.99S
JBLM-FT LEWIS  CLOUDY    49  39  68 S7        29.98R
TACOMA NARROWS CLOUDY    45  41  86 S7        29.99S
$$

WAZ001-503-506-510-514-515-180200-
NORTH INTERIOR

CITY           SKY/WX    TMP DP  RH WIND       PRES   REMARKS
BELLINGHAM     LGT RAIN  43  43 100 S7        29.98F FOG
FRIDAY HARBOR  LGT RAIN  43  41  93 SE6       30.00S FOG
EASTSOUND      CLOUDY    43  43 100 S14       29.97S
PORT ANGELES   RAIN      45  41  86 SE6       29.99S FOG
EDIZ HOOK      RAIN      44  44  99 CALM      29.99S
PORT TOWNSEND  CLOUDY    41  39  93 SE5       29.99R
NAS WHIDBEY    NOT AVBL
ARLINGTON      CLOUDY    43  41  93 CALM      30.00S
BURLINGTON     CLOUDY    43  43 100 CALM      30.00R FOG
$$

WAZ020-022-039-040-504-511-512-180200-
SOUTHWEST INTERIOR

CITY           SKY/WX    TMP DP  RH WIND       PRES   REMARKS
SHELTON        CLOUDY    47  46  97 SW8       29.98R
OLYMPIA        CLOUDY    51  42  71 SW8       30.00S
CHEHALIS       FAIR      48  43  81 VRB5      30.02R
KELSO          CLOUDY    41  38  89 S9G18     30.07S
VANCOUVER      CLOUDY    42  37  82 CALM      30.08S
SCAPPOOSE, OR    N/A     41  37  86 CALM      30.08
PORTLAND, OR   MOCLDY    42  36  79 E5        30.08F
$$

WAZ021-516-517-180200-
WASHINGTON COAST

CITY           SKY/WX    TMP DP  RH WIND       PRES   REMARKS
FORKS          LGT RAIN  47  47 100 VRB6      29.98S FOG
HOQUIAM        CLOUDY    49  45  86 S9        30.01F
ASTORIA, OR    CLOUDY    49  44  83 S5        30.03S
$$

WAZ019-023-024-040-567>569-180200-
CASCADE MOUNTAINS AND COLUMBIA GORGE

CITY           SKY/WX    TMP DP  RH WIND       PRES   REMARKS
STAMPEDE PASS  NOT AVBL
TROUTDALE, OR  NOT AVBL
HOOD RIVER, OR CLEAR     41  32  70 CALM      29.99S
THE DALLES, OR CLEAR     40  32  73 E3        30.01S
$$

WAZ026-027-041>044-520-521-180200-
EAST SLOPES

CITY           SKY/WX    TMP DP  RH WIND       PRES   REMARKS
OMAK           CLOUDY    32  27  81 S6        29.97S
WENATCHEE      CLOUDY    29  26  89 E5        29.98S
ELLENSBURG     FOG       29  25  85 CALM      29.95R VSB 1/2
YAKIMA         CLOUDY    31  29  92 CALM      29.99S FOG
SUNNYSIDE ARPT CLOUDY    32  31  94 CALM      30.01S
YAKIMA TC      CLOUDY    30  28  93 CALM      29.96S FOG
$$

WAZ028-034-035-180200-
COLUMBIA BASIN

CITY           SKY/WX    TMP DP  RH WIND       PRES   REMARKS
EPHRATA        CLOUDY    29  26  89 NW3       29.97F
MOSES LAKE     CLOUDY    30  27  88 W5        29.98F
PASCO          CLOUDY    35  32  88 N3        30.02F
RICHLAND ARPT  CLOUDY    35  33  94 CALM      30.03S
HERMISTON, OR  CLOUDY    34  33  96 CALM      30.00F FOG
$$

WAZ036>038-180200-
NORTHEAST WASHINGTON

CITY           SKY/WX    TMP DP  RH WIND       PRES   REMARKS
SPOKANE GEIGER MOCLDY    37  30  75 S5        29.92R
SPOKANE FELTS  PTCLDY    34  31  88 CALM      29.93R
FAIRCHILD AFB  MOCLDY    34  34  99 SW3       29.90R
COEURDALENE,ID PTCLDY    33  29  85 S6        29.92R
DEER PARK      PTCLDY    27  25  92 CALM      29.93R FOG
$$

WAZ029>033-180200-
SOUTHEAST WASHINGTON

CITY           SKY/WX    TMP DP  RH WIND       PRES   REMARKS
PULLMAN        CLOUDY    36  28  73 SE8       29.96S
LEWISTON, ID   MOCLDY    39  30  70 CALM      29.97F
WALLA WALLA    PTCLDY    31  31 100 N5        29.98R
PENDLETON, OR  CLEAR     34  31  88 NE7       29.96S
$$


 

View Past Reports for Seattle, WA.

Products Courtesy of NOAA-NWS
NWS Information Parsing Script by Ken True at Saratoga Weather - Script by SE Lincoln Weather.